Regional Weather Roundup
Issued by NWS

Home | Current Version | Previous Version | Graphics & Text | Print | Product List | Glossary On
Versions: 1 2 3 4 5 6 7 8 9 10 11 12 13 14 15 16 17 18 19 20 21 22 23 24 25 26 27 28 29 30 31 32 33 34 35 36 37 38 39 40 41 42 43 44 45 46 47 48 49 50
228
ASUS43 KIND 192359
RWRIN

WEATHER ROUNDUP FOR INDIANA
NATIONAL WEATHER SERVICE INDIANAPOLIS IN
700 PM EST THU JAN 19 2017

NOTE: "FAIR" INDICATES FEW OR NO CLOUDS BELOW 12,000 FEET WITH NO
SIGNIFICANT WEATHER AND/OR OBSTRUCTIONS TO VISIBILITY.

* - STATION DOES NOT REPORT WEATHER SUCH AS PRECIPITATION OR FOG.

+ - STATION NOT QUALITY CONTROLLED BY THE NATIONAL WEATHER SERVICE.
    USE DATA WITH CAUTION...ESPECIALLY DEWPOINT AND RELATIVE
    HUMIDITY OBSERVATIONS.

INZ001>003-010>013-019-020-200100-
NORTHWEST INDIANA

CITY           SKY/WX    TMP DP  RH WIND       PRES   REMARKS
GARY /AIRPORT/ LGT RAIN  41  37  87 E6        29.85F
MONTICELLO +   RAIN      39  37  92 E6        29.87R
6HR MIN TEMP:  39; 6HR MAX TEMP:  40;


$$

LMZ046-743>745-200100-
SOUTHERN LAKE MICHIGAN

STATION/POSITION TIME  TEMP    WIND        PRES    WAVE
                       AIR SEA DIR/SP/G            HT
                 (UTC) (F)     (DEG/KT/KT) (MB)    (FT)
BURNS HARBOR     2340   40     190/  7/ 11 1012.2S
MICHIGAN CITY    2330   39     120/  6/  9   N/A

$$

INZ004-005-014>016-021>024-200100-
NORTH CENTRAL INDIANA

CITY           SKY/WX    TMP DP  RH WIND       PRES   REMARKS
ELKHART        MOCLDY    37  34  87 E9        29.86F FOG
GOSHEN         MOCLDY    37  33  85 E8        29.87F FOG
6HR MIN TEMP:  37; 6HR MAX TEMP:  40;

SOUTH BEND     CLOUDY    38  35  89 SE8       29.87F
6HR MIN TEMP:  37; 6HR MAX TEMP:  39;


$$

INZ006>009-017-018-025>027-200100-
NORTHEAST INDIANA

CITY           SKY/WX    TMP DP  RH WIND       PRES   REMARKS
ANGOLA *+      CLEAR     36  36 100 SE3       29.90F
FORT WAYNE     CLOUDY    40  36  86 E10       29.89F
6HR MIN TEMP:  39; 6HR MAX TEMP:  44;

KENDALLVILLE + CLOUDY    36  35  96 SE9       29.90F FOG

$$

INZ028-029-035-036-043>045-051>053-200100-
WEST CENTRAL INDIANA

CITY           SKY/WX    TMP DP  RH WIND       PRES   REMARKS
CRAWFORDSVL +  LGT SNOW  41  41 100 E8        29.82F
6HR MIN TEMP:  41; 6HR MAX TEMP:  42; 6HR PCP:  0.27;

LAFAYETTE      RAIN      41  40  96 E10       29.84F FOG
6HR MIN TEMP:  41; 6HR MAX TEMP:  44; 6HR PCP:  0.18;

TERRE HAUTE    LGT RAIN  44  42  93 E12       29.78F
6HR MIN TEMP:  43; 6HR MAX TEMP:  46; 6HR PCP:  0.21;


$$

INZ030>032-037>040-046>048-054>057-064-065-200100-
CENTRAL INDIANA

CITY           SKY/WX    TMP DP  RH WIND       PRES   REMARKS
COLUMBUS       LGT RAIN  46  45  93 E6        29.84F FOG
INDIANAPOLIS   RAIN      44  41  89 E7        29.83F FOG
6HR MIN TEMP:  44; 6HR MAX TEMP:  46; 6HR PCP:  0.16;

-EAGLE CREEK   RAIN      45  40  82 E6        29.83F
6HR MIN TEMP:  45; 6HR MAX TEMP:  47; 6HR PCP:  0.14;

KOKOMO +       LGT RAIN  41  39  93 E6        29.89R FOG
6HR MIN TEMP:  39; 6HR MAX TEMP:  41; 6HR PCP: TRACE;

MT COMFORT *+  CLOUDY    45  39  81 CALM      29.86R
SHELBYVILLE    CLOUDY    46  39  76 E5        29.85R
6HR MIN TEMP:  46; 6HR MAX TEMP:  47; 6HR PCP: TRACE;


$$

INZ033-034-041-042-049-050-058-059-200100-
EAST CENTRAL INDIANA

CITY           SKY/WX    TMP DP  RH WIND       PRES   REMARKS
MUNCIE         CLOUDY    44  39  82 E8        29.86S
6HR MIN TEMP:  43; 6HR MAX TEMP:  46;


$$

INZ060-061-067>069-081>083-085>088-200100-
SOUTHWEST INDIANA

CITY           SKY/WX    TMP DP  RH WIND       PRES   REMARKS
EVANSVILLE     RAIN      52  50  93 S6        29.77S FOG
6HR MIN TEMP:  48; 6HR MAX TEMP:  52; 6HR PCP:  0.11;

HUNTINGBURG *+ CLOUDY    48  48 100 SE12      29.77F
6HR MIN TEMP:  48; 6HR MAX TEMP:  52; 6HR PCP:  0.23;


$$

INZ062-063-066-070>080-084-089>092-200100-
SOUTH CENTRAL AND SOUTHEAST INDIANA

CITY           SKY/WX    TMP DP  RH WIND       PRES   REMARKS
BLOOMINGTON    LGT RAIN  45  42  89 SE9       29.79F
6HR MIN TEMP:  45; 6HR MAX TEMP:  48; 6HR PCP:  0.36;

MADISON *+     CLOUDY    46  43  87 E3        29.85S

$$





USA.gov is the U.S. government's official web portal to all federal, state and local government web resources and services.